Beatrice, NE

11:46 AM CDT on June 23, 2017 (GMT -0500)
Beatrice Municipal

Weather History for KBIE - November, 2012

Change the Weather History Date:

Monday, November 5, 2012

  Actual Average Record
Temperature  
Mean Temperature 44 °F -  
Max Temperature 47 °F 57 °F 75 °F (1978)
Min Temperature 40 °F 34 °F 15 °F (1982)
Degree Days  
Heating Degree Days 21    
Moisture  
Dew Point 36 °F    
Average Humidity 76    
Maximum Humidity 83    
Minimum Humidity 70    
Precipitation  
Precipitation 0.00 in - - ()
Sea Level Pressure  
Sea Level Pressure 30.11 in    
Wind  
Wind Speed 13 mph (NNW)    
Max Wind Speed 22 mph    
Max Gust Speed 28 mph    
Visibility 9 miles    
Events      
Averages and records for this station are not official NWS values.
T = Trace of Precipitation, MM = Missing Value Source: NWS Daily Summary

Daily Weather History Graph

Daily Weather History Graph

Search for Another Location

Airport or City:

Trip Planner

Search our weather history database for the weather conditions in past years. The results will help you decide how hot, cold, wet, or windy it might be!

Date:

Astronomy

Nov. 05, 2012 Rise Set
Actual Time 7:01 AM CST 5:18 PM CST
Civil Twilight 6:33 AM CST 5:47 PM CST
Nautical Twilight 6:00 AM CST 6:19 PM CST
Astronomical Twilight 5:29 AM CST 6:51 PM CST
Moon 10:57 PM CST (11/5) 12:21 PM CST (11/5)
Length of Visible Light 11h 14m
Length of Day
10h 17m
Waning Gibbous, 62% of the Moon is Illuminated
Nov 5
Waning Gibbous
Nov 6
Last Quarter
Nov 13
New
Nov 20
First Quarter
Nov 28
Full

Hourly Weather History & Observations

Time (CST) Temp. Windchill Dew Point Humidity Pressure Visibility Wind Dir Wind Speed Gust Speed Precip Events Conditions
12:15 AM 47.5 °F - 40.1 °F 76% 30.05 in 10.0 mi NNW 11.5 mph - N/A   Overcast
12:35 AM 46.4 °F 41.1 °F 40.5 °F 80% 30.05 in 10.0 mi NNW 11.5 mph - N/A   Overcast
12:55 AM 45.7 °F 40.2 °F 39.9 °F 80% 30.04 in 7.0 mi NNW 11.5 mph - N/A   Overcast
1:15 AM 45.3 °F 38.7 °F 40.1 °F 82% 30.05 in 7.0 mi NNW 15.0 mph - N/A   Light Drizzle
1:35 AM 45.0 °F 38.5 °F 40.1 °F 83% 30.05 in 7.0 mi NNW 13.8 mph - N/A   Overcast
1:55 AM 45.0 °F 38.5 °F 40.1 °F 83% 30.05 in 10.0 mi NNW 13.8 mph - N/A   Overcast
2:15 AM 44.8 °F 38.3 °F 39.4 °F 81% 30.05 in 10.0 mi NNW 13.8 mph - N/A   Overcast
2:35 AM 44.6 °F 37.8 °F 39.4 °F 82% 30.05 in 10.0 mi NW 15.0 mph - N/A   Overcast
2:55 AM 44.8 °F 37.7 °F 39.4 °F 81% 30.05 in 10.0 mi NNW 16.1 mph - N/A   Overcast
3:15 AM 43.9 °F 37.2 °F 38.3 °F 81% 30.05 in 10.0 mi NNW 13.8 mph 20.7 mph N/A   Overcast
3:35 AM 43.7 °F 36.6 °F 38.3 °F 81% 30.05 in 10.0 mi NNW 15.0 mph - N/A   Overcast
3:55 AM 43.7 °F 36.9 °F 38.5 °F 82% 30.05 in 10.0 mi NNW 13.8 mph - N/A   Overcast
4:15 AM 43.7 °F 36.9 °F 38.5 °F 82% 30.06 in 10.0 mi North 13.8 mph - N/A   Overcast
4:35 AM 43.7 °F 36.3 °F 38.3 °F 81% 30.07 in 10.0 mi NNW 16.1 mph - N/A   Overcast
4:55 AM 43.7 °F 36.9 °F 37.8 °F 80% 30.07 in 10.0 mi NNW 13.8 mph 18.4 mph N/A   Overcast
5:15 AM 43.7 °F 36.6 °F 37.8 °F 80% 30.08 in 10.0 mi North 15.0 mph 21.9 mph N/A   Overcast
5:35 AM 43.2 °F 35.0 °F 37.6 °F 81% 30.08 in 10.0 mi North 18.4 mph 25.3 mph N/A   Overcast
5:55 AM 43.0 °F 35.1 °F 37.6 °F 81% 30.09 in 10.0 mi NNW 17.3 mph - N/A   Overcast
6:15 AM 43.0 °F 34.5 °F 37.0 °F 80% 30.09 in 10.0 mi NNW 19.6 mph - N/A   Overcast
6:35 AM 42.8 °F 34.8 °F 36.7 °F 79% 30.09 in 10.0 mi North 17.3 mph 21.9 mph N/A   Overcast
6:55 AM 42.8 °F 35.4 °F 36.5 °F 78% 30.10 in 10.0 mi NNW 15.0 mph 23.0 mph N/A   Overcast
7:15 AM 42.6 °F 34.6 °F 36.1 °F 78% 30.10 in 10.0 mi NNW 17.3 mph - N/A   Overcast
7:35 AM 42.3 °F 33.3 °F 36.0 °F 78% 30.11 in 10.0 mi NNW 20.7 mph 24.2 mph N/A   Overcast
7:55 AM 41.9 °F 32.8 °F 35.6 °F 78% 30.12 in 10.0 mi NNW 20.7 mph 26.5 mph N/A   Overcast
8:15 AM 42.1 °F 33.3 °F 35.4 °F 77% 30.12 in 10.0 mi NNW 19.6 mph 26.5 mph N/A   Overcast
8:35 AM 41.9 °F 33.4 °F 35.1 °F 77% 30.12 in 10.0 mi NNW 18.4 mph 27.6 mph N/A   Overcast
8:55 AM 42.1 °F 33.9 °F 35.1 °F 76% 30.13 in 10.0 mi NNW 17.3 mph 25.3 mph N/A   Overcast
9:15 AM 41.9 °F 33.1 °F 34.9 °F 76% 30.14 in 10.0 mi NNW 19.6 mph 25.3 mph N/A   Overcast
9:35 AM 41.9 °F 33.1 °F 34.7 °F 76% 30.14 in 10.0 mi NNW 19.6 mph - N/A   Overcast
9:55 AM 41.9 °F 32.6 °F 34.7 °F 76% 30.15 in 10.0 mi NNW 21.9 mph 26.5 mph N/A   Overcast
10:15 AM 42.3 °F 33.3 °F 34.7 °F 75% 30.15 in 10.0 mi North 20.7 mph - N/A   Overcast
10:35 AM 42.1 °F 33.6 °F 34.7 °F 75% 30.16 in 10.0 mi North 18.4 mph 24.2 mph N/A   Overcast
10:55 AM 42.3 °F 33.3 °F 34.7 °F 75% 30.16 in 10.0 mi NNW 20.7 mph 24.2 mph N/A   Overcast
11:15 AM 42.3 °F 33.6 °F 34.7 °F 75% 30.16 in 10.0 mi NNW 19.6 mph 24.2 mph N/A   Overcast
11:35 AM 42.3 °F 34.4 °F 34.7 °F 75% 30.16 in 10.0 mi NNW 16.1 mph - N/A   Overcast
11:55 AM 42.4 °F 34.4 °F 34.7 °F 74% 30.16 in 10.0 mi NNW 17.3 mph - N/A   Overcast
12:15 PM 42.8 °F 35.1 °F 35.1 °F 74% 30.16 in 10.0 mi NNW 16.1 mph - N/A   Overcast
12:35 PM 43.3 °F 35.5 °F 35.6 °F 74% 30.16 in 10.0 mi North 17.3 mph - N/A   Overcast
12:55 PM 43.2 °F 35.9 °F 35.2 °F 74% 30.15 in 10.0 mi North 15.0 mph 20.7 mph N/A   Overcast
1:15 PM 43.7 °F 36.3 °F 35.6 °F 73% 30.15 in 10.0 mi North 16.1 mph - N/A   Overcast
1:35 PM 43.7 °F 36.9 °F 35.6 °F 73% 30.14 in 7.0 mi North 13.8 mph - N/A   Overcast
1:55 PM 44.4 °F 38.2 °F 35.8 °F 72% 30.13 in 7.0 mi North 12.7 mph - N/A   Overcast
2:15 PM 44.8 °F 38.0 °F 35.6 °F 70% 30.13 in 7.0 mi North 15.0 mph - N/A   Overcast
2:35 PM 44.2 °F 37.0 °F 35.6 °F 72% 30.13 in 7.0 mi North 16.1 mph - N/A   Overcast
2:55 PM 44.2 °F 37.6 °F 35.4 °F 71% 30.12 in 10.0 mi North 13.8 mph - N/A   Overcast
3:15 PM 44.4 °F 37.9 °F 35.4 °F 71% 30.12 in 10.0 mi North 13.8 mph - N/A   Overcast
3:35 PM 44.2 °F 38.8 °F 35.4 °F 71% 30.13 in 10.0 mi NNW 10.4 mph - N/A   Overcast
3:55 PM 44.2 °F 38.8 °F 34.9 °F 70% 30.14 in 10.0 mi NNW 10.4 mph - N/A   Overcast
4:15 PM 44.1 °F 38.1 °F 34.7 °F 70% 30.14 in 10.0 mi North 11.5 mph - N/A   Overcast
4:35 PM 43.7 °F 38.1 °F 34.7 °F 71% 30.13 in 10.0 mi North 10.4 mph - N/A   Overcast
4:55 PM 43.3 °F 38.1 °F 34.5 °F 71% 30.12 in 7.0 mi North 9.2 mph - N/A   Overcast
5:15 PM 43.2 °F 37.9 °F 34.7 °F 72% 30.13 in 10.0 mi North 9.2 mph - N/A   Overcast
5:35 PM 43.0 °F 39.5 °F 34.7 °F 73% 30.13 in 10.0 mi North 5.8 mph - N/A   Overcast
5:55 PM 42.8 °F 39.3 °F 34.7 °F 73% 30.12 in 10.0 mi NNE 5.8 mph - N/A   Overcast
6:15 PM 42.8 °F 41.1 °F 34.7 °F 73% 30.13 in 10.0 mi NNE 3.5 mph - N/A   Overcast
6:35 PM 42.8 °F 41.1 °F 34.7 °F 73% 30.14 in 10.0 mi NNE 3.5 mph - N/A   Overcast
6:55 PM 42.4 °F 39.6 °F 34.7 °F 74% 30.13 in 10.0 mi NNE 4.6 mph - N/A   Overcast
7:15 PM 42.4 °F - 34.9 °F 75% 30.14 in 10.0 mi Calm Calm - N/A   Overcast
7:35 PM 42.3 °F 40.5 °F 34.9 °F 75% 30.14 in 10.0 mi NNW 3.5 mph - N/A   Overcast
7:55 PM 42.1 °F - 35.1 °F 76% 30.13 in 10.0 mi Calm Calm - N/A   Overcast
8:15 PM 41.9 °F - 35.1 °F 77% 30.12 in 10.0 mi Calm Calm - N/A   Overcast
8:35 PM 41.9 °F 40.0 °F 34.9 °F 76% 30.12 in 7.0 mi NW 3.5 mph - N/A   Overcast
8:55 PM 41.9 °F - 34.9 °F 76% 30.12 in 7.0 mi Calm Calm - N/A   Overcast
9:15 PM 41.9 °F - 35.1 °F 77% 30.12 in 7.0 mi Calm Calm - N/A   Overcast
9:35 PM 42.1 °F - 34.9 °F 76% 30.12 in 10.0 mi Calm Calm - N/A   Overcast
9:55 PM 41.9 °F - 34.9 °F 76% 30.11 in 7.0 mi Calm Calm - N/A   Overcast
10:15 PM 41.4 °F 39.4 °F 34.9 °F 78% 30.11 in 7.0 mi WSW 3.5 mph - N/A   Overcast
10:35 PM 41.4 °F 39.4 °F 34.9 °F 78% 30.10 in 10.0 mi South 3.5 mph - N/A   Overcast
10:55 PM 41.7 °F 38.8 °F 35.1 °F 77% 30.09 in 10.0 mi South 4.6 mph - N/A   Overcast
11:15 PM 41.9 °F 36.9 °F 35.2 °F 77% 30.06 in 10.0 mi SSE 8.1 mph - N/A   Overcast
11:35 PM 41.9 °F 39.0 °F 35.2 °F 77% 30.07 in 10.0 mi South 4.6 mph - N/A   Overcast
11:55 PM 40.8 °F 36.9 °F 34.7 °F 79% 30.06 in 7.0 mi South 5.8 mph - N/A   Mostly Cloudy